Garrison, ND

7:59 AM CST on February 09, 2016 (GMT -0600)
Garrison

Weather History for KN60 - November, 2013

Change the Weather History Date:

Tuesday, November 26, 2013

  Actual Average Record
Temperature  
Mean Temperature 13 °F -  
Max Temperature 19 °F 30 °F 44 °F (1998)
Min Temperature 7 °F 14 °F -14 °F (1996)
Degree Days  
Heating Degree Days 52    
Month to date heating degree days 995  
Moisture  
Dew Point 6 °F    
Average Humidity 77    
Maximum Humidity 92    
Minimum Humidity 61    
Precipitation  
Precipitation 0.00 in - - ()
Month to date precipitation 0.35  
Year to date precipitation 29.22  
Sea Level Pressure  
Sea Level Pressure 30.50 in    
Wind  
Wind Speed 9 mph (NW)    
Max Wind Speed 15 mph    
Max Gust Speed 19 mph    
Averages and records for this station are not official NWS values.
T = Trace of Precipitation, MM = Missing Value Source: NWS Daily Summary

Daily Weather History Graph

Daily Weather History Graph

Search for Another Location

Airport or City:

Trip Planner

Search our weather history database for the weather conditions in past years. The results will help you decide how hot, cold, wet, or windy it might be!

Date:

Astronomy

Nov. 26, 2013 Rise Set
Actual Time 8:07 AM CST 4:58 PM CST
Civil Twilight 7:32 AM CST 5:33 PM CST
Nautical Twilight 6:53 AM CST 6:11 PM CST
Astronomical Twilight 6:17 AM CST 6:48 PM CST
Moon 12:44 AM CST (11/26) 1:32 PM CST (11/26)
Length of Visible Light 10h 01m
Length of Day
8h 51m
Last Quarter, 41% of the Moon is Illuminated
Nov 26
Last Quarter
Dec 2
New
Dec 9
First Quarter
Dec 17
Full
Dec 25
Last Quarter

Hourly Weather History & Observations

Time (CST) Temp. Windchill Dew Point Humidity Pressure Visibility Wind Dir Wind Speed Gust Speed Precip Events Conditions
12:52 AM 9.0 °F -4.2 °F 6.1 °F 88% 30.45 in - NNW 9.2 mph - N/A   Unknown
1:52 AM 8.1 °F -5.3 °F 5.0 °F 87% 30.46 in - WNW 9.2 mph - N/A   Unknown
2:52 AM 9.0 °F -4.2 °F 5.0 °F 84% 30.46 in - WNW 9.2 mph - N/A   Unknown
3:52 AM 10.0 °F -2.9 °F 7.0 °F 87% 30.47 in - WNW 9.2 mph - N/A   Unknown
4:52 AM 10.9 °F -4.1 °F 8.1 °F 88% 30.47 in - WNW 12.7 mph - N/A   Unknown
5:52 AM 8.1 °F -7.0 °F 5.0 °F 87% 30.50 in - NW 11.5 mph - N/A   Unknown
6:52 AM 9.0 °F -6.6 °F 6.1 °F 88% 30.52 in - NW 12.7 mph - N/A   Unknown
7:52 AM 8.1 °F -7.7 °F 3.9 °F 83% 30.53 in - NNW 12.7 mph - N/A   Unknown
8:52 AM 7.0 °F -8.3 °F 3.9 °F 87% 30.56 in - NW 11.5 mph - N/A   Unknown
9:52 AM 10.0 °F -4.5 °F 5.0 °F 80% 30.57 in - NW 11.5 mph - N/A   Unknown
10:52 AM 12.9 °F -0.2 °F 7.0 °F 77% 30.59 in - NW 10.4 mph - N/A   Unknown
11:52 AM 15.1 °F 3.3 °F 8.1 °F 74% 30.58 in - NW 9.2 mph - N/A   Unknown
12:52 PM 17.1 °F 8.7 °F 9.0 °F 71% 30.57 in - NNW 5.8 mph - N/A   Unknown
1:52 PM 18.0 °F 11.1 °F 8.1 °F 65% 30.56 in - NNW 4.6 mph - N/A   Unknown
2:52 PM 18.0 °F 9.8 °F 7.0 °F 62% 30.53 in - West 5.8 mph - N/A   Unknown
3:52 PM 18.0 °F 8.7 °F 8.1 °F 65% 30.53 in - WNW 6.9 mph - N/A   Unknown
4:52 PM 17.1 °F - 8.1 °F 68% 30.51 in - Calm Calm - N/A   Unknown
5:52 PM 12.9 °F - 6.1 °F 74% 30.50 in - Calm Calm - N/A   Unknown
6:52 PM 7.0 °F - 3.0 °F 84% 30.49 in - Calm Calm - N/A   Unknown
7:52 PM 6.1 °F -2.8 °F 1.9 °F 83% 30.47 in - East 4.6 mph - N/A   Unknown
8:52 PM 6.1 °F -2.8 °F 3.0 °F 87% 30.46 in - SE 4.6 mph - N/A   Unknown
9:52 PM 12.0 °F 1.5 °F 8.1 °F 84% 30.41 in - SE 6.9 mph - N/A   Unknown
10:52 PM 16.0 °F 3.6 °F 10.9 °F 81% 30.38 in - SSE 10.4 mph - N/A   Unknown
11:52 PM 15.1 °F 1.1 °F 10.9 °F 84% 30.37 in - South 12.7 mph - N/A   Unknown